Location: Arbon
(43.0005°N, 0.7472°E)
Time: 15:24:43
(UTC+00:00)

Tiangong - Visible Passes

Search period start: 26 September 2021 00:00
Search period end: 06 October 2021 00:00
Orbit: 382 x 385 km, 41.5° (Epoch: 26 September)

Date Brightness Start Highest point End Pass type
(mag) Time Alt. Az. Time Alt. Az. Time Alt. Az.
26 Sep 4.0 04:00:28 10° SSE 04:00:35 10° SSE 04:00:41 10° SE visible
27 Sep 2.8 04:35:19 16° SSW 04:37:02 25° SSE 04:39:43 10° E visible
28 Sep 3.8 03:38:24 14° SE 03:38:24 14° SE 03:39:23 10° ESE visible
28 Sep 1.7 05:10:38 10° WSW 05:13:42 49° SSE 05:16:46 10° E visible
29 Sep 2.0 04:13:37 36° S 04:13:51 36° SSE 04:16:48 10° E visible
30 Sep 4.5 03:16:36 11° E 03:16:36 11° E 03:16:42 10° E visible
30 Sep 1.3 04:48:48 23° WSW 04:50:34 61° S 04:53:43 10° E visible
01 Oct 2.7 03:51:45 32° ESE 03:51:45 32° ESE 03:53:45 10° E visible
01 Oct 1.3 05:24:14 10° W 05:27:22 65° S 05:30:31 10° ESE visible
02 Oct 1.1 04:26:53 53° SW 04:27:27 67° S 04:30:35 10° E visible
03 Oct 4.0 03:29:50 16° E 03:29:50 16° E 03:30:38 10° E visible
03 Oct 1.4 05:02:02 18° W 05:04:12 55° S 05:07:18 10° ESE visible
04 Oct 1.9 04:05:00 45° SE 04:05:00 45° SE 04:07:24 10° ESE visible
05 Oct 1.7 04:40:13 34° SW 04:40:58 41° SSW 04:43:58 10° SE visible
